Tillbaka till svenska Fidonet
English   Information   Debug  
FILM   0/18
FNEWS_PUBLISH   5034
FN_SYSOP   42247
FN_SYSOP_OLD1   71952
FTP_FIDO   0/2
FTSC_PUBLIC   0/13979
FUNNY   0/4886
GENEALOGY.EUR   0/71
GET_INFO   105
GOLDED   0/408
HAM   4865/16786
HOLYSMOKE   0/6791
HOT_SITES   0/1
HTMLEDIT   0/71
HUB203   466
HUB_100   264
HUB_400   39
HUMOR   0/29
IC   0/2851
INTERNET   0/424
INTERUSER   0/3
IP_CONNECT   719
JAMNNTPD   0/233
JAMTLAND   0/47
KATTY_KORNER   0/41
LAN   0/16
LINUX-USER   0/19
LINUXHELP   0/1155
LINUX   0/22430
LINUX_BBS   0/957
mail   18.68
mail_fore_ok   249
MENSA   0/341
MODERATOR   0/102
MONTE   0/992
MOSCOW_OKLAHOMA   0/1245
MUFFIN   0/783
MUSIC   0/321
N203_STAT   938
N203_SYSCHAT   313
NET203   321
NET204   69
NET_DEV   0/10
NORD.ADMIN   0/101
NORD.CHAT   0/2572
NORD.FIDONET   189
NORD.HARDWARE   0/28
NORD.KULTUR   0/114
NORD.PROG   0/32
NORD.SOFTWARE   0/88
NORD.TEKNIK   0/58
NORD   0/453
OCCULT_CHAT   0/93
OS2BBS   0/787
OS2DOSBBS   0/580
OS2HW   0/42
OS2INET   0/37
OS2LAN   0/134
OS2PROG   0/36
OS2REXX   0/113
OS2USER-L   207
OS2   0/4835
OSDEBATE   0/18996
PASCAL   0/490
PERL   0/457
PHP   0/45
POINTS   0/405
POLITICS   0/29554
POL_INC   3075/14731
PSION   103
R20_ADMIN   1133
R20_AMATORRADIO   0/2
R20_BEST_OF_FIDONET   16
R20_CHAT   0/897
R20_DEPP   0/3
R20_DEV   400
R20_ECHO2   1934
R20_ECHOPRES   0/35
R20_ESTAT   0/719
R20_FIDONETPROG...
...RAM.MYPOINT
  0/2
R20_FIDONETPROGRAM   0/22
R20_FIDONET   0/248
R20_FILEFIND   0/24
R20_FILEFOUND   0/22
R20_HIFI   0/3
R20_INFO2   3828
R20_INTERNET   0/12940
R20_INTRESSE   0/60
R20_INTR_KOM   0/99
R20_KANDIDAT.CHAT   42
R20_KANDIDAT   28
R20_KOM_DEV   112
R20_KONTROLL   0/13360
R20_KORSET   0/18
R20_LOKALTRAFIK   0/24
R20_MODERATOR   0/1852
R20_NC   76
R20_NET200   245
R20_NETWORK.OTH...
...ERNETS
  0/13
R20_OPERATIVSYS...
...TEM.LINUX
  0/44
R20_PROGRAMVAROR   0/1
R20_REC2NEC   534
R20_SFOSM   0/341
R20_SF   0/108
R20_SPRAK.ENGLISH   0/1
R20_SQUISH   107
R20_TEST   2
R20_WORST_OF_FIDONET   20
RAR   0/9
RA_MULTI   106
RA_UTIL   0/162
REGCON.EUR   0/2072
REGCON   0/13
SCIENCE   0/1206
SF   0/239
SHAREWARE_SUPPORT   0/5146
SHAREWRE   0/14
SIMPSONS   0/169
STATS_OLD1   0/2539.065
STATS_OLD2   0/2530
STATS_OLD3   0/2395.095
STATS_OLD4   0/1692.25
SURVIVOR   0/495
SYSOPS_CORNER   0/3
SYSOP   0/84
TAGLINES   0/112
TEAMOS2   0/4530
TECH   0/2617
TEST.444   0/105
TRAPDOOR   0/19
TREK   0/755
TUB   0/290
UFO   0/40
UNIX   0/1316
USA_EURLINK   0/102
USR_MODEMS   0/1
VATICAN   0/2740
VIETNAM_VETS   0/14
VIRUS   0/378
VIRUS_INFO   0/201
VISUAL_BASIC   0/473
WHITEHOUSE   0/5187
WIN2000   0/101
WIN32   0/30
WIN95   0/4291
WIN95_OLD1   0/70272
WINDOWS   0/1517
WWB_SYSOP   0/419
WWB_TECH   0/810
ZCC-PUBLIC   0/1
ZEC   4

 
4DOS   0/134
ABORTION   0/7
ALASKA_CHAT   0/506
ALLFIX_FILE   0/1313
ALLFIX_FILE_OLD1   0/7997
ALT_DOS   0/152
AMATEUR_RADIO   0/1039
AMIGASALE   0/14
AMIGA   0/331
AMIGA_INT   0/1
AMIGA_PROG   0/20
AMIGA_SYSOP   0/26
ANIME   0/15
ARGUS   0/924
ASCII_ART   0/340
ASIAN_LINK   0/651
ASTRONOMY   0/417
AUDIO   0/92
AUTOMOBILE_RACING   0/105
BABYLON5   0/17862
BAG   135
BATPOWER   0/361
BBBS.ENGLISH   0/382
BBSLAW   0/109
BBS_ADS   0/5290
BBS_INTERNET   0/507
BIBLE   0/3563
BINKD   0/1119
BINKLEY   0/215
BLUEWAVE   0/2173
CABLE_MODEMS   0/25
CBM   0/46
CDRECORD   0/66
CDROM   0/20
CLASSIC_COMPUTER   0/378
COMICS   0/15
CONSPRCY   0/899
COOKING   42383
COOKING_OLD1   0/24719
COOKING_OLD2   0/40862
COOKING_OLD3   0/37489
COOKING_OLD4   0/35496
COOKING_OLD5   9370
C_ECHO   0/189
C_PLUSPLUS   0/31
DIRTY_DOZEN   146/201
DOORGAMES   0/2388
DOS_INTERNET   0/196
duplikat   6103
ECHOLIST   17788/18295
EC_SUPPORT   0/318
ELECTRONICS   0/359
ELEKTRONIK.GER   1534
ENET.LINGUISTIC   0/13
ENET.POLITICS   0/4
ENET.SOFT   0/11701
ENET.SYSOP   34431
ENET.TALKS   0/32
ENGLISH_TUTOR   0/2000
EVOLUTION   0/1335
FDECHO   0/217
FDN_ANNOUNCE   0/7068
FIDONEWS   25233
FIDONEWS_OLD1   0/49742
FIDONEWS_OLD2   0/35949
FIDONEWS_OLD3   0/30874
FIDONEWS_OLD4   0/37224
FIDO_SYSOP   12977
FIDO_UTIL   0/180
FILEFIND   0/209
FILEGATE   0/212
Möte HAM, 16786 texter
 lista första sista föregående nästa
Text 2144, 787 rader
Skriven 2008-02-29 00:00:49 av Amsat List (1:323/120.0)
Ärende: [keps]  orb08059.amsa
=============================
[keps]  orb08059.amsa

Return-Path: <keps-bounces@amsat.org>
X-Rcpt: craig.healy@chowda.com
X-UIDL: 1204261054.5435

SB KEPS @ AMSAT  $ORB08059.O
Orbital Elements  08059.OSCAR

HR AMSAT ORBITAL ELEMENTS FOR OSCAR SATELLITES
FROM WA5QGD FORT WORTH,TX February 28, 2008
Send Subscribe/unsubscribe to KEPS at 
http://www.amsat.org/mailman/listinfo/keps
BID: ORB08059.O
TO ALL RADIO AMATEURS BT

Satellite: AO-07
Catalog number: 07530
Epoch time:      08059.79916430
Element set:     114
Inclination:      101.4812 deg
RA of node:       094.9034 deg
Eccentricity:    0.0012079
Arg of perigee:   115.3654 deg
Mean anomaly:     244.8664 deg
Mean motion:   12.53573600 rev/day
Decay rate:       -2.7e-07 rev/day^2
Epoch rev:           52327
Checksum:              285

Satellite: AO-10
Catalog number: 14129
Epoch time:      08058.52278192
Element set:    0476
Inclination:      025.9279 deg
RA of node:       228.2479 deg
Eccentricity:    0.6025524
Arg of perigee:   102.3320 deg
Mean anomaly:     327.4450 deg
Mean motion:   02.05872153 rev/day
Decay rate:      -1.94e-06 rev/day^2
Epoch rev:           18582
Checksum:              302

Satellite: UO-11
Catalog number: 14781
Epoch time:      08059.83585554
Element set:     607
Inclination:      098.1685 deg
RA of node:       092.1650 deg
Eccentricity:    0.0010103
Arg of perigee:   068.0753 deg
Mean anomaly:     292.1527 deg
Mean motion:   14.79618964 rev/day
Decay rate:      -2.10e-06 rev/day^2
Epoch rev:           28768
Checksum:              323

Satellite: RS-15
Catalog number: 23439
Epoch time:      08058.94728506
Element set:    0133
Inclination:      064.8211 deg
RA of node:       313.3198 deg
Eccentricity:    0.0150206
Arg of perigee:   143.6674 deg
Mean anomaly:     217.4559 deg
Mean motion:   11.27551476 rev/day
Decay rate:       -3.9e-07 rev/day^2
Epoch rev:           54253
Checksum:              306

Satellite: FO-29
Catalog number: 24278
Epoch time:      08059.22890360
Element set:     712
Inclination:      098.5847 deg
RA of node:       349.9099 deg
Eccentricity:    0.0351194
Arg of perigee:   140.1025 deg
Mean anomaly:     222.6510 deg
Mean motion:   13.52935963 rev/day
Decay rate:        7.4e-07 rev/day^2
Epoch rev:           56952
Checksum:              329

Satellite: SO-33
Catalog number: 25509
Epoch time:      08058.75060735
Element set:     141
Inclination:      031.4273 deg
RA of node:       220.7889 deg
Eccentricity:    0.0354757
Arg of perigee:   141.7477 deg
Mean anomaly:     220.8907 deg
Mean motion:   14.28197887 rev/day
Decay rate:       2.22e-06 rev/day^2
Epoch rev:           48781
Checksum:              332

Satellite: AO-40
Catalog number: 26609
Epoch time:      08058.13732626
Element set:      15
Inclination:      007.4400 deg
RA of node:       095.7165 deg
Eccentricity:    0.7922904
Arg of perigee:   055.7824 deg
Mean anomaly:     355.6004 deg
Mean motion:   01.25583892 rev/day
Decay rate:      -3.98e-06 rev/day^2
Epoch rev:            3364
Checksum:              309

Satellite: VO-52
Catalog number: 28650
Epoch time:      08059.10913514
Element set:     867
Inclination:      097.8011 deg
RA of node:       128.6876 deg
Eccentricity:    0.0028083
Arg of perigee:   138.1881 deg
Mean anomaly:     222.1455 deg
Mean motion:   14.81426954 rev/day
Decay rate:       3.74e-06 rev/day^2
Epoch rev:           15230
Checksum:              310

Satellite: PO-63
Catalog number: 29712
Epoch time:      08059.77394701
Element set:     226
Inclination:      097.8879 deg
RA of node:       119.9631 deg
Eccentricity:    0.0014701
Arg of perigee:   021.0381 deg
Mean anomaly:     339.1417 deg
Mean motion:   14.80037451 rev/day
Decay rate:       4.69e-06 rev/day^2
Epoch rev:            6128
Checksum:              313

/EX
SB KEPS @ AMSAT  $ORB08059.D
Orbital Elements  08059.MICROS

HR AMSAT ORBITAL ELEMENTS FOR THE MICROSATS
FROM WA5QGD FORT WORTH,TX February 28, 2008
Send Subscribe/unsubscribe to KEPS at 
http://www.amsat.org/mailman/listinfo/keps
BID: ORB08059.D
TO ALL RADIO AMATEURS BT

Satellite: AO-16
Catalog number: 20439
Epoch time:      08059.00518023
Element set:     262
Inclination:      098.2208 deg
RA of node:       044.7556 deg
Eccentricity:    0.0011510
Arg of perigee:   140.4674 deg
Mean anomaly:     219.7349 deg
Mean motion:   14.31785188 rev/day
Decay rate:       -6.0e-08 rev/day^2
Epoch rev:           94515
Checksum:              294

Satellite: LO-19
Catalog number: 20442
Epoch time:      08059.90925295
Element set:     187
Inclination:      098.1961 deg
RA of node:       054.4604 deg
Eccentricity:    0.0012616
Arg of perigee:   136.8768 deg
Mean anomaly:     223.3393 deg
Mean motion:   14.32024334 rev/day
Decay rate:        1.9e-07 rev/day^2
Epoch rev:           94543
Checksum:              310

Satellite: AO-27
Catalog number: 22825
Epoch time:      08059.84884658
Element set:     909
Inclination:      098.3718 deg
RA of node:       024.0481 deg
Eccentricity:    0.0007832
Arg of perigee:   219.8155 deg
Mean anomaly:     140.2454 deg
Mean motion:   14.29231506 rev/day
Decay rate:        3.6e-07 rev/day^2
Epoch rev:           75215
Checksum:              318

Satellite: IO-26
Catalog number: 22826
Epoch time:      08059.85187007
Element set:     612
Inclination:      098.3637 deg
RA of node:       025.0107 deg
Eccentricity:    0.0008268
Arg of perigee:   216.7944 deg
Mean anomaly:     143.2680 deg
Mean motion:   14.29479163 rev/day
Decay rate:       -1.0e-07 rev/day^2
Epoch rev:           75224
Checksum:              306

